User: anonymous   Login
Location: Waldport
(44.4270°N, 124.0680°W)
Time: 03:53:29
(UTC-08:00)
Language:

Cosmos 1023 Rocket - Orbit

View from above orbital plane
View from above orbital plane
View from above satellite
View from above satellite

Ground track
Ground track

The orbit data is extracted from the following two-line orbital elements,

1 10962U 78063B   16343.16847214  .00000001  00000-0  83613-5 0  9999
2 10962  74.0790 211.5424 0025024 166.0411 194.1443 14.41064341 18359
Epoch (UTC): 08 December 2016 04:02:35
Eccentricity: 0.0025024
inclination: 74.0790°
perigee height: 737 km
apogee height: 773 km
right ascension of ascending node: 211.5424°
argument of perigee: 166.0411°
revolutions per day: 14.41064341
mean anomaly at epoch: 194.1443°
orbit number at epoch: 1835

The dashed part of the orbit path shows where the satellite is in the earth's shadow,  

DLR